Regional Weather Roundup
Issued by NWS

Home | Current Version | Previous Version | Graphics & Text | Print | Product List | Glossary On
Versions: 1 2 3 4 5 6 7 8 9 10 11 12 13 14 15 16 17 18 19 20 21 22 23 24 25 26 27 28 29 30 31 32 33 34 35 36 37 38 39 40 41 42 43 44 45 46 47 48 49 50
000
ASUS43 KDTX 180701
RWRMI
MICHIGAN HOURLY REGIONAL WEATHER ROUNDUP
NATIONAL WEATHER SERVICE DETROIT/PONTIAC MI
300 AM EDT FRI AUG 18 2017

NOTE: "FAIR" INDICATES FEW OR NO CLOUDS BELOW 12,000 FEET WITH NO
SIGNIFICANT WEATHER AND/OR OBSTRUCTION TO VISIBILITY.

MIZ047>049-052>055-059>063-066>070-074>076-081>083-180800-
SOUTHEAST LOWER MICHIGAN

CITY           SKY/WX    TMP DP  RH WIND       PRES   REMARKS
ADRIAN         CLEAR     68  65  90 SW6       29.75F
ALMA           PTCLDY    68  65  92 SW8       29.66F
ANN ARBOR      CLEAR     70  66  87 SW12      29.72F
BAD AXE        CLEAR     69  65  86 SW8       29.66F
CARO           MOCLDY    67  64  91 SW5       29.66F
DETROIT CITY   CLEAR     74  66  76 W12       29.71F
DETROIT        PTCLDY    73  66  78 SW13      29.73F
FLINT          MOCLDY    71  66  84 SW8       29.69F
GROSSE ILE     CLEAR     71  66  83 SW8       29.72F
HILLSDALE      PTCLDY    70  64  83 SW7       29.75S
HOWELL         PTCLDY    70  65  85 S7        29.70F

CITY           SKY/WX    TMP DP  RH WIND       PRES   REMARKS
JACKSON          N/A     72  65  78 SW14      29.72F
LAMBERTVILLE   CLEAR     72  66  82 SW8       29.74F
LANSING        PTCLDY    70  64  81 SW12      29.69F
LAPEER         CLOUDY    71  67  88 SW6       29.69F
MASON          CLEAR     72  66  81 SW7       29.70F
MONROE         CLEAR     70  66  87 SW5       29.73F
MT. CLEMENS    CLEAR     73  67  84 SW9       29.69F
PONTIAC        PTCLDY    71  66  84 SW6       29.70F
PORT HOPE        N/A     70  65  84 SW8       29.63F
PORT HURON     CLEAR     72  66  83 SW5       29.70S
TRI CITIES     MOCLDY    70  68  93 SW12      29.66F
MIDLAND        FAIR      69  65  89 SW8       29.64S
TROY           CLEAR     73  66  80 SW7       29.73S
SAGINAW HB     PTCLDY    68  64  88 S8        29.66S
$$
MIZ043>046-050>051-056>058-064>065-071>073-077>080-180800-
SOUTHWEST LOWER MICHIGAN

CITY           SKY/WX    TMP DP  RH WIND       PRES   REMARKS
BATTLE CREEK   MOCLDY    71  63  75 W15       29.74S
BENTON HARBOR  CLOUDY    73  63  70 W12       29.74F
BIG RAPIDS     CLOUDY    67  63  89 W10       29.65S
COLDWATER      CLEAR     70  67  88 W9G17     29.76R
FREMONT        CLOUDY    66  65  96 W10G17    29.66F
HOLLAND        CLOUDY    70  62  76 W14G22    29.72F
GRAND RAPIDS   CLOUDY    70  66  87 W17G25    29.69F
IONIA          CLOUDY    69  65  88 W14G20    29.67F
KALAMAZOO      PTCLDY    71  60  68 W16G22    29.74S
LUDINGTON      CLOUDY    67  62  84 W9G16     29.63F
MARSHALL       CLEAR     71  66  84 SW13      29.72F
MOUNT PLEASANT MOCLDY    71  64  79 SW7       29.63F
MUSKEGON       CLOUDY    69  63  81 W10G21    29.68F
SOUTH HAVEN    CLOUDY    72  62  71 W9G21     29.74S
$$
MIZ016>042-180800-
NORTHERN LOWER MICHIGAN

CITY           SKY/WX    TMP DP  RH WIND       PRES   REMARKS
ALPENA         MOCLDY    68  68 100 S6        29.58F
BEAVER ISLAND  DRIZZLE   68  68  99 SW7       29.51S
BELLAIRE       DRIZZLE   67  65  94 SW6       29.57S
CHARLEVOIX     LGT RAIN  68  68 100 SW12G18   29.56S
FRANKFORT      CLOUDY    69  67  95 W10G22    29.59F
GAYLORD        CLOUDY    66  63  90 SW16G24   29.58F
GRAYLING       CLOUDY    67  63  87 SW9G17    29.60F
HARBOR SPRINGS CLOUDY    68  67  95 SW10G18   29.52F
HOUGHTON LAKE  RAIN      67  64  90 W15       29.62S FOG
MANISTEE       CLOUDY    67  64  90 W10       29.61F
OSCODA         MOCLDY    68  66  93 SW10G20   29.60S
PELLSTON       LGT RAIN  68  67  96 S7        29.52F FOG
ROGERS CITY    CLOUDY    68  66  93 S6        29.56F
TRAVERSE CITY  CLOUDY    68  65  90 SW8       29.56F
$$
MIZ007>008-015-180800-
EASTERN UPPER MICHIGAN

CITY           SKY/WX    TMP DP  RH WIND       PRES   REMARKS
KINROSS        RAIN      67  66  97 SE8       29.52F FOG
MACKINAC ISLAN CLOUDY    67  67 100 S8        29.52F
NEWBERRY       CLOUDY    66  65  97 CALM      29.51S FOG
S. S. MARIE    CLOUDY    66  64  93 CALM      29.52F
MUNISING         N/A     63  63 100 NW9G23    29.53S
$$
MIZ004>006-011>014-085-180800-
CENTRAL UPPER MICHIGAN

CITY           SKY/WX    TMP DP  RH WIND       PRES   REMARKS
MANISTIQUE     CLOUDY    67  61  81 NW10      29.50S
ESCANABA       CLOUDY    63  60  90 W14       29.55S
MENOMINEE      CLOUDY    64  59  83 VRB7      29.61S
SAWYER-GWINN   CLOUDY    59  58  97 W13       29.57S
$$
MIZ001>003-009>011-084-180800-
WESTERN UPPER MICHIGAN

CITY           SKY/WX    TMP DP  RH WIND       PRES   REMARKS
IRON MOUNTAIN  CLOUDY    63  57  81 NW13G22   29.60R
HOUGHTON       LGT RAIN  57  56  96 NW18      29.60R FOG
COPPER HARBOR    N/A     56  55  97 NE14      29.58R
IRONWOOD       CLOUDY    61  59  93 NW12      29.73R
$$

ABBREVIATIONS USED IN REMARKS
   TC - TEMPERATURE IN CELSIUS
  WCI - WIND CHILL INDEX
   HX - HEAT INDEX
  VSB - VISIBILITY





USA.gov is the U.S. government's official web portal to all federal, state and local government web resources and services.